Location: Bednik
(45.3500°N, 16.3833°E)
Time: 16:11:16
(UTC+00:00)

Cosmos 1954 Rocket - Pass Details

Date: 08 August 2020
Orbit: 752 x 781 km, 74.0° (Epoch: 18 September)

Event Time Altitude Azimuth Distance (km) Brightness Sun altitude
Exits shadow 20:06:49 15° 186° (S) 1,975 5.8 -17.3°
Maximum altitude 20:11:07 65° 107° (ESE) 857 4.0 -17.9°
Drops below altitude 10° 20:16:24 10° 27° (NNE) 2,344 6.8 -18.5°
Sets 20:18:48 0° 24° (NNE) 3,275 7.6 -18.8°
